Regional Weather Roundup
Issued by NWS

Home | Current Version | Previous Version | Text Only | Print | Product List | Glossary Off
Versions: 1 2 3 4 5 6 7 8 9 10 11 12 13 14 15 16 17 18 19 20 21 22 23 24 25 26 27 28 29 30 31 32 33 34 35 36 37 38 39 40 41 42 43 44 45 46 47 48 49 50

000
ASUS43 KIND 310459
RWRIN

WEATHER ROUNDUP FOR INDIANA
NATIONAL WEATHER SERVICE INDIANAPOLIS IN
100 AM EDT MON AUG 31 2015

NOTE: "FAIR" INDICATES FEW OR NO CLOUDS BELOW 12,000 FEET WITH NO
SIGNIFICANT WEATHER AND/OR OBSTRUCTIONS TO VISIBILITY.

* - STATION DOES NOT REPORT WEATHER SUCH AS PRECIPITATION OR FOG.

+ - STATION NOT QUALITY CONTROLLED BY THE NATIONAL WEATHER SERVICE.
    USE DATA WITH CAUTION...ESPECIALLY DEWPOINT AND RELATIVE
    HUMIDITY OBSERVATIONS.

INZ001>003-010>013-019-020-310600-
NORTHWEST INDIANA

CITY           SKY/WX    TMP DP  RH WIND       PRES   REMARKS
KNOX *+          N/A     61  61 100 CALM      30.04S VSB 1/4
MONTICELLO +   CLEAR     71  71 100 CALM      30.04S FOG
VALPARAISO     FOG       63  62  97 NE3       30.05S VSB 1/2

$$

LMZ046-743>745-310600-
SOUTHERN LAKE MICHIGAN

STATION/POSITION TIME  TEMP    WIND        PRES    WAVE
                       AIR SEA DIR/SP/G            HT
                 (UTC) (F)     (DEG/KT/KT) (MB)    (FT)
BURNS HARBOR     0400   68     110/  7/  8 1017.6F
MICHIGAN CITY    0400   66      60/  2/  3   N/A
5NW MICH CITY    0400   69 71  120/  4/  6   N/A     1

$$

INZ004-005-014>016-021>024-310600-
NORTH CENTRAL INDIANA

CITY           SKY/WX    TMP DP  RH WIND       PRES   REMARKS
GOSHEN         FOG       65  64  97 CALM      30.06R VSB 1/4
PERU/GRISSOM   PTCLDY    69  67  92 S6        30.05S
SOUTH BEND     CLEAR     62  61  96 CALM      30.06S FOG

$$

INZ006>009-017-018-025>027-310600-
NORTHEAST INDIANA

CITY           SKY/WX    TMP DP  RH WIND       PRES   REMARKS
ANGOLA *+      CLOUDY    64  64 100 CALM      30.07R VSB 0
FORT WAYNE     PTCLDY    67  66  97 CALM      30.07R

$$

INZ028-029-035-036-043>045-051>053-310600-
WEST CENTRAL INDIANA

CITY           SKY/WX    TMP DP  RH WIND       PRES   REMARKS
GREENCASTLE +  CLEAR     66  63  88 CALM      30.07S
LAFAYETTE      CLEAR     71  67  87 CALM      30.04S
TERRE HAUTE    CLEAR     67  66  97 CALM      30.05S

$$

INZ030>032-037>040-046>048-054>057-064-065-310600-
CENTRAL INDIANA

CITY           SKY/WX    TMP DP  RH WIND       PRES   REMARKS
FRANKFORT +    CLEAR    N/A N/A N/A CALM      30.08S
GREENWOOD *+   CLEAR     70  64  83 S3        30.08S
INDIANAPOLIS   MOCLDY    72  66  81 S3        30.06R
-EAGLE CREEK   CLEAR     71  67  87 CALM      30.06R
KOKOMO *+      MOCLDY    66  63  88 CALM      30.06S
MT COMFORT *+  CLEAR     70  70 100 S5        30.07S
SHELBYVILLE    CLEAR     72  66  81 S3        30.06F

$$

INZ033-034-041-042-049-050-058-059-310600-
EAST CENTRAL INDIANA

CITY           SKY/WX    TMP DP  RH WIND       PRES   REMARKS
MUNCIE         CLEAR     70  66  87 S5        30.07S

$$

INZ060-061-067>069-081>083-085>088-310600-
SOUTHWEST INDIANA

CITY           SKY/WX    TMP DP  RH WIND       PRES   REMARKS
EVANSVILLE     MOCLDY    71  66  84 S5        30.07R
HUNTINGBURG *+ PTCLDY    72  66  83 S5        30.07S

$$

INZ062-063-066-070>080-084-089>092-310600-
SOUTH CENTRAL AND SOUTHEAST INDIANA

CITY           SKY/WX    TMP DP  RH WIND       PRES   REMARKS
BLOOMINGTON    CLEAR     68  66  93 CALM      30.07S
MADISON *+     PTCLDY    68  64  88 CALM      30.11S
SEYMOUR +      PTCLDY    68  66  94 CALM      30.07R

$$



USA.gov is the U.S. government's official web portal to all federal, state and local government web resources and services.